FW8882 Weather Reports


time (UTC)temp
F
wind
direction
speed
knots
gust
knots
rain 1hr
in
rain 24hr
in
rain mn
in
humidity
%
barometer
mb
20260503055020 34 343 0.0 0.0 0.00 0.00 0.00 89 1015.6
20260503054516 34 344 0.0 0.0 0.00 0.00 0.00 89 1015.7
20260503054014 35 343 0.0 0.0 0.00 0.00 0.00 89 1016.0
20260503053512 35 343 0.0 0.0 0.00 0.00 0.00 88 1015.7
20260503053009 35 344 0.0 0.0 0.00 0.00 0.00 88 1015.8
20260503052506 35 343 0.0 0.0 0.00 0.00 0.00 88 1015.9
20260503052002 35 343 0.0 0.0 0.00 0.00 0.00 88 1016.0
20260503051458 35 343 0.0 0.0 0.00 0.00 0.00 88 1015.9
20260503050955 35 340 0.0 0.0 0.00 0.00 0.00 89 1015.7
20260503050451 35 343 0.0 0.0 0.00 0.00 0.00 89 1015.9
20260503045949 35 344 0.0 0.0 0.00 0.00 0.00 89 1015.9
20260503045446 35 343 0.0 0.0 0.00 0.00 0.00 89 1015.7
20260503044943 34 344 0.0 0.0 0.00 0.00 0.00 90 1015.7
20260503044439 34 343 0.0 0.0 0.00 0.00 0.00 89 1015.9
20260503043937 35 344 0.0 0.0 0.00 0.00 0.00 89 1015.9
20260503043433 35 344 0.0 0.0 0.00 0.00 0.00 89 1015.6
20260503042930 35 344 0.0 0.0 0.00 0.00 0.00 89 1015.6
20260503042427 35 340 0.0 0.0 0.00 0.00 0.00 89 1015.7
20260503041923 36 344 0.0 0.0 0.00 0.00 0.00 88 1015.7
20260503041420 36 344 0.0 0.0 0.00 0.00 0.00 87 1015.7
20260503040917 36 344 0.0 0.0 0.00 0.00 0.00 86 1015.7
20260503040415 36 344 0.0 0.0 0.00 0.00 0.00 86 1015.6
20260503035912 36 344 0.0 0.0 0.00 0.00 0.00 86 1015.7
20260503035409 37 344 0.0 0.0 0.00 0.00 0.00 85 1015.9
20260503034906 37 344 0.0 0.0 0.00 0.00 0.00 83 1015.8
20260503034403 37 344 0.0 0.0 0.00 0.00 0.00 85 1015.8
20260503033900 37 344 0.0 0.0 0.00 0.00 0.00 86 1016.0
20260503033358 38 344 0.0 0.0 0.00 0.00 0.00 86 1015.9
20260503032855 38 344 0.0 0.0 0.00 0.00 0.00 86 1016.1
20260503032355 38 344 0.0 0.0 0.00 0.00 0.00 86 1016.0
20260503031851 38 344 0.0 0.0 0.00 0.00 0.00 85 1015.9
20260503031349 38 344 0.0 0.0 0.00 0.00 0.00 86 1016.0
20260503030845 39 344 0.0 0.0 0.00 0.00 0.00 86 1016.0
20260503030342 39 343 0.0 0.0 0.00 0.00 0.00 82 1016.0
20260503025838 39 343 0.0 0.0 0.00 0.00 0.00 82 1016.0
20260503025336 39 343 0.0 0.0 0.00 0.00 0.00 80 1016.2
20260503024833 39 344 0.0 0.0 0.00 0.00 0.00 79 1016.0
20260503024329 38 344 0.0 0.0 0.00 0.00 0.00 78 1016.1
20260503023826 39 344 0.0 0.0 0.00 0.00 0.00 80 1016.2
20260503023324 38 344 0.0 0.0 0.00 0.00 0.00 80 1016.1
20260503022820 38 344 0.0 0.0 0.00 0.00 0.00 81 1016.1
20260503022320 38 344 0.0 0.0 0.00 0.00 0.00 81 1016.2
20260503021817 38 344 0.0 0.0 0.00 0.00 0.00 80 1016.3
20260503021313 37 343 0.0 0.0 0.00 0.00 0.00 79 1016.2
20260503020811 37 344 0.0 0.0 0.00 0.00 0.00 80 1016.1
20260503020309 37 344 0.0 0.0 0.00 0.00 0.00 84 1016.0
20260503015804 37 344 0.0 0.0 0.00 0.00 0.00 84 1016.3
20260503015305 37 344 0.0 0.0 0.00 0.00 0.00 82 1016.1
20260503014757 38 344 0.0 0.0 0.00 0.00 0.00 79 1016.1
20260503014255 38 344 0.0 0.0 0.00 0.00 0.00 80 1016.0
20260503013752 39 344 0.0 0.0 0.00 0.00 0.00 80 1015.9
20260503013250 39 344 0.0 0.0 0.00 0.00 0.00 79 1015.8
20260503012747 39 344 0.0 0.0 0.00 0.00 0.00 77 1015.9
20260503012244 40 344 0.0 0.0 0.00 0.00 0.00 78 1015.9
20260503011741 41 344 0.0 0.0 0.00 0.00 0.00 74 1015.8
20260503011238 41 344 0.0 0.0 0.00 0.00 0.00 73 1015.8
20260503010734 41 344 0.0 0.0 0.00 0.00 0.00 72 1015.7
20260503010231 41 344 0.0 0.0 0.00 0.00 0.00 71 1015.8
20260503005728 42 344 0.0 0.0 0.00 0.00 0.00 70 1015.8
20260503005226 42 344 0.0 0.0 0.00 0.00 0.00 70 1015.8
20260503004721 42 344 0.0 0.0 0.00 0.00 0.00 69 1015.7
20260503004220 42 344 0.0 0.0 0.00 0.00 0.00 68 1015.6
20260503003717 43 344 0.0 0.0 0.00 0.00 0.00 67 1015.6
20260503003214 43 344 0.0 0.9 0.00 0.00 0.00 66 1015.9
20260503002710 43 355 0.0 0.9 0.00 0.00 0.00 65 1015.6
20260503002207 44 337 0.9 0.9 0.00 0.00 0.00 65 1015.7
20260503001703 44 344 0.0 0.9 0.00 0.00 0.00 63 1015.5
20260503001200 44 343 0.0 0.0 0.00 0.00 0.00 64 1015.6
20260503000658 44 337 0.9 0.9 0.00 0.00 0.00 62 1015.4
20260503000155 44 344 0.0 0.9 0.00 0.00 0.00 63 1015.5
20260502235652 44 349 0.9 0.9 0.00 0.00 0.00 64 1015.5
20260502235150 44 334 0.0 0.9 0.00 0.00 0.00 62 1015.6
20260502234645 44 337 0.9 1.7 0.00 0.00 0.00 61 1015.4
20260502234143 44 355 0.9 1.7 0.00 0.00 0.00 61 1015.5
20260502233639 44 348 0.0 0.0 0.00 0.00 0.00 63 1015.3
20260502233136 44 17 0.9 0.9 0.00 0.00 0.00 63 1015.5
20260502232631 45 338 0.0 1.7 0.00 0.00 0.00 61 1015.5
20260502232129 45 356 0.9 1.7 0.00 0.00 0.00 61 1015.3
20260502231626 45 281 0.9 1.7 0.00 0.00 0.00 63 1015.4
20260502231124 45 267 0.9 2.6 0.00 0.00 0.00 60 1015.6
20260502230622 45 0 0.0 0.0 0.00 0.00 0.00 62 1015.5
20260502230120 45 342 0.0 1.7 0.00 0.00 0.00 61 1015.5
20260502225615 45 329 0.9 2.6 0.00 0.00 0.00 58 1015.6
20260502225113 45 319 0.9 2.6 0.00 0.00 0.00 57 1015.6
20260502224609 45 351 0.0 1.7 0.00 0.00 0.00 57 1015.4
20260502224106 45 329 0.0 1.7 0.00 0.00 0.00 59 1015.2
20260502223603 45 337 2.6 4.3 0.00 0.00 0.00 59 1015.5
20260502223102 45 314 1.7 2.6 0.00 0.00 0.00 57 1015.4
20260502222559 45 357 0.9 1.7 0.00 0.00 0.00 58 1015.5
20260502222055 46 348 0.0 0.9 0.00 0.00 0.00 62 1015.4
20260502221550 45 337 0.9 1.7 0.00 0.00 0.00 57 1015.3
20260502221048 46 334 0.0 2.6 0.00 0.00 0.00 58 1015.3
20260502220543 46 341 0.0 0.9 0.00 0.00 0.00 59 1015.5
20260502220041 46 336 0.9 2.6 0.00 0.00 0.00 58 1015.2
20260502215538 46 326 0.9 1.7 0.00 0.00 0.00 58 1015.4
20260502215034 46 325 1.7 2.6 0.00 0.00 0.00 56 1015.2
20260502214531 46 322 1.7 4.3 0.00 0.00 0.00 57 1015.4
20260502214029 46 274 1.7 5.2 0.00 0.00 0.00 56 1015.4
20260502213525 46 338 1.7 1.7 0.00 0.00 0.00 58 1015.4
20260502213024 46 265 3.5 4.3 0.00 0.00 0.00 54 1015.3
20260502212522 46 338 2.6 4.3 0.00 0.00 0.00 58 1015.1
20260502212020 46 239 0.9 2.6 0.00 0.00 0.00 59 1015.2
20260502211515 46 351 0.9 4.3 0.00 0.00 0.00 56 1015.2
20260502211012 46 337 3.5 4.3 0.00 0.00 0.00 54 1015.2
20260502210509 46 39 0.9 1.7 0.00 0.00 0.00 55 1015.2
20260502210006 46 342 0.9 2.6 0.00 0.00 0.00 56 1015.3
20260502205503 47 338 1.7 2.6 0.00 0.00 0.00 56 1015.1
20260502205000 47 297 0.9 2.6 0.00 0.00 0.00 55 1015.2
20260502204456 47 17 0.0 1.7 0.00 0.00 0.00 58 1015.3
20260502203955 47 341 1.7 1.7 0.00 0.00 0.00 55 1015.2
20260502203451 47 303 0.9 1.7 0.00 0.00 0.00 56 1015.2
20260502202948 47 316 1.7 2.6 0.00 0.00 0.00 53 1015.4
20260502202444 47 321 0.9 1.7 0.00 0.00 0.00 60 1015.2
20260502201943 46 284 0.9 1.7 0.00 0.00 0.00 54 1015.4
20260502201438 46 338 0.0 4.3 0.00 0.00 0.00 54 1015.2
20260502200935 46 347 0.9 6.1 0.00 0.00 0.00 56 1015.3
20260502200431 46 315 2.6 5.2 0.00 0.00 0.00 56 1015.3
20260502195929 46 333 0.9 0.9 0.00 0.00 0.00 59 1015.3
20260502195426 46 27 1.7 4.3 0.00 0.00 0.00 58 1015.6
20260502194922 46 313 1.7 2.6 0.00 0.00 0.00 58 1015.4
20260502194419 46 1 2.6 2.6 0.00 0.00 0.00 56 1015.5
20260502193915 46 350 1.7 1.7 0.00 0.00 0.00 55 1015.4
20260502193412 47 304 2.6 2.6 0.00 0.00 0.00 53 1015.6
20260502192908 47 347 1.7 4.3 0.00 0.00 0.00 52 1015.7
20260502192405 48 352 3.5 5.2 0.00 0.00 0.00 56 1015.6
20260502191902 47 334 0.9 5.2 0.00 0.00 0.00 55 1015.5
20260502191400 47 327 1.7 7.0 0.00 0.00 0.00 59 1015.6
20260502190857 47 346 0.9 4.3 0.00 0.00 0.00 56 1015.6
20260502190354 47 29 1.7 6.1 0.00 0.00 0.00 55 1015.7
20260502185850 47 334 0.0 5.2 0.00 0.00 0.00 59 1016.0
20260502185345 46 270 1.7 5.2 0.00 0.00 0.00 57 1015.8
20260502184843 46 329 2.6 6.1 0.00 0.00 0.00 58 1015.7
20260502184338 47 318 1.7 2.6 0.00 0.00 0.00 57 1015.8
20260502183835 47 293 1.7 2.6 0.00 0.00 0.00 58 1015.8
20260502183331 47 18 2.6 4.3 0.00 0.00 0.00 58 1015.8
20260502182826 47 358 0.9 4.3 0.00 0.00 0.00 56 1015.8
20260502182322 47 348 0.0 2.6 0.00 0.00 0.00 57 1016.0
20260502181819 47 344 1.7 4.3 0.00 0.00 0.00 59 1015.8
20260502181318 46 316 0.9 5.2 0.00 0.00 0.00 56 1015.9
20260502180815 47 321 0.9 4.3 0.00 0.00 0.00 56 1016.0
20260502180312 48 291 2.6 4.3 0.00 0.00 0.00 57 1015.7
20260502170231 45 317 0.9 4.3 0.00 0.00 0.00 55 1016.4
20260502164219 46 306 0.9 1.7 0.00 0.00 0.00 66 1016.0
20260502163714 46 306 0.9 2.6 0.00 0.00 0.00 65 1016.3
20260502163211 45 304 1.7 4.3 0.00 0.00 0.00 61 1016.3
20260502162708 45 345 2.6 5.2 0.00 0.00 0.00 62 1016.3
20260502162204 45 351 2.6 4.3 0.00 0.00 0.00 62 1016.5
20260502161702 44 349 2.6 5.2 0.00 0.00 0.00 65 1016.5
20260502161158 44 314 1.7 6.1 0.00 0.00 0.00 65 1016.5
20260502160656 44 354 0.9 4.3 0.00 0.00 0.00 66 1016.4
20260502160155 44 323 2.6 4.3 0.00 0.00 0.00 63 1016.4
20260502152109 45 67 1.7 6.1 0.00 0.00 0.00 65 1016.3
20260502151606 44 3 0.9 2.6 0.00 0.00 0.00 67 1016.5
20260502151104 45 29 4.3 6.1 0.00 0.00 0.00 66 1016.2
20260502150601 45 344 4.3 6.1 0.00 0.00 0.00 69 1016.1
20260502130446 41 325 4.3 5.2 0.00 0.00 0.00 79 1015.9
20260502123428 39 342 0.9 0.9 0.00 0.00 0.00 80 1015.7
20260502122925 39 334 1.7 2.6 0.00 0.00 0.00 80 1015.9
20260502122421 39 358 1.7 2.6 0.00 0.00 0.00 81 1015.8
20260502121920 37 333 0.9 1.7 0.00 0.00 0.00 81 1015.7
20260502121416 37 332 0.0 0.9 0.00 0.00 0.00 83 1015.7
20260502120914 37 328 0.9 1.7 0.00 0.00 0.00 82 1015.6
20260502120410 36 338 0.9 1.7 0.00 0.00 0.00 83 1015.6
20260502115908 36 341 0.0 1.7 0.00 0.00 0.00 82 1015.5
20260502115405 36 290 0.9 2.6 0.00 0.00 0.00 82 1015.4
20260502114901 36 326 0.9 2.6 0.00 0.00 0.00 83 1015.5
20260502114358 35 337 0.0 2.6 0.00 0.00 0.00 84 1015.6
20260502113855 35 340 0.0 0.9 0.00 0.00 0.00 84 1015.3
20260502113352 35 341 0.0 0.9 0.00 0.00 0.00 85 1015.5
20260502112851 34 341 0.9 1.7 0.00 0.00 0.00 84 1015.3
20260502112348 34 340 0.0 0.9 0.00 0.00 0.00 85 1015.2
20260502111845 34 333 0.0 0.9 0.00 0.00 0.00 85 1015.4
20260502111342 33 329 2.6 2.6 0.00 0.00 0.00 87 1015.3
20260502110840 33 336 0.0 0.9 0.00 0.00 0.00 88 1015.4
20260502110338 33 332 0.9 0.9 0.00 0.00 0.00 89 1015.4
20260502105835 33 332 0.0 0.9 0.00 0.00 0.00 90 1015.3
20260502105332 32 332 0.0 0.9 0.00 0.00 0.00 91 1015.2
20260502104830 32 332 0.0 0.0 0.00 0.00 0.00 91 1015.3
20260502104327 32 332 0.0 0.0 0.00 0.00 0.00 92 1015.2
20260502103824 32 332 0.0 0.0 0.00 0.00 0.00 92 1015.1
20260502103321 32 332 0.0 0.0 0.00 0.00 0.00 91 1015.1
20260502102818 32 332 0.0 0.0 0.00 0.00 0.00 91 1015.0
20260502102314 32 332 0.0 0.0 0.00 0.00 0.00 91 1015.0
20260502101813 33 339 0.0 0.0 0.00 0.00 0.00 90 1015.3
20260502101310 33 344 0.0 0.0 0.00 0.00 0.00 89 1014.9
20260502100809 33 332 0.0 0.0 0.00 0.00 0.00 88 1015.1
20260502100307 33 327 0.9 0.9 0.00 0.00 0.00 88 1015.2
20260502091241 34 331 0.0 1.7 0.00 0.00 0.00 90 1015.2
20260502090738 34 331 0.0 1.7 0.00 0.00 0.00 90 1015.0
20260502090235 33 356 0.0 1.7 0.00 0.00 0.00 92 1015.0
20260502071136 34 335 0.0 0.0 0.00 0.00 0.00 93 1015.0
20260502070634 34 335 0.0 0.0 0.00 0.00 0.00 93 1014.7
20260502070132 34 340 0.0 0.0 0.00 0.00 0.00 93 1015.0
20260502065630 34 340 0.0 0.0 0.00 0.00 0.00 93 1015.0
20260502065127 34 340 0.0 0.0 0.00 0.00 0.00 93 1015.2
20260502064626 34 336 0.0 0.0 0.00 0.00 0.00 94 1015.2
20260502064122 34 329 0.0 0.0 0.00 0.00 0.00 95 1015.2
20260502063620 34 329 0.0 0.0 0.00 0.00 0.00 95 1015.2